Tracking 19245 objects as of 14-Aug-2018
HD Live streaming from Space Station
objects crossing your sky now

NOAA 16 DEB

Track NOAA 16 DEB now!
10-day predictions


NORAD ID: 41521
Int'l Code: 2000-055MV
Perigee: 790.9 km
Apogee: 885.3 km
Inclination: 98.8 °
Period: 101.5 minutes
Semi major axis: 7209 km
RCS: Unknown
Launch date: September 21, 2000
Source: United States (US)
Launch site: AIR FORCE WESTERN TEST RANGE (AFWTR)

Note: This is SATELLITE DEBRIS
aabbcc
Your satellite tracking list
Your tracking list is empty




NASA's NSSDC Master Catalog

Two Line Element Set (TLE):
1 41521U 00055MV  18224.41722324 +.00001525 +00000-0 +74562-3 0  9995
2 41521 098.8121 296.2819 0065459 236.6524 122.8374 14.18354357119524
Source of the keplerian elements: AFSPC